{"data":{"norad_id":65987,"epoch":"2026-05-25T04:51:10.236384Z","epoch_age_seconds":51361,"freshness":"FRESH","line1":"1 65987U 25230P   26145.20220181  .00000241  00000+0  22599-3 0  9997","line2":"2 65987  81.3004 233.5420 0001112 142.3962 217.7269 13.78595926 30590","mean_motion":13.78595926,"eccentricity":0.0001112,"inclination_deg":81.3004,"raan_deg":233.542,"arg_perigee_deg":142.3962,"mean_anomaly_deg":217.7269,"bstar":0.00022599,"rev_number":3059,"period_min":104.45410238359,"perigee_km":968.05403678702,"apogee_km":969.68801137158,"semimajor_km":7347.0080240793,"source":"CELESTRAK","updated_at":"2026-05-25T13:38:05.880182Z"}}